This is the latest recevied weather packets stored in our database for station/object KC4KQE. If no packets are shown the sender has not sent any weather packets the latest 10 day(s).
| Time | Temp. | Humidity | Pressure | Rain* | Wind** | Luminosity | Snow |
|---|---|---|---|---|---|---|---|
| 1777924756 | 26.11° C | 30% | 1013.1 hPa | 0 mm | - | 420 W/m² | - |
| 1777924456 | 26.11° C | 29% | 1013.1 hPa | 0 mm | - | 432 W/m² | - |
| 1777924156 | 26.11° C | 29% | 1013.2 hPa | 0 mm | - | 439 W/m² | - |
| 1777923856 | 26.11° C | 30% | 1013.1 hPa | 0 mm | - | 475 W/m² | - |
| 1777923556 | 26.11° C | 29% | 1013.1 hPa | 0 mm | - | 584 W/m² | - |
| 1777923256 | 26.67° C | 29% | 1013.1 hPa | 0 mm | - | 578 W/m² | - |
| 1777922956 | 26.67° C | 29% | 1012.9 hPa | 0 mm | - | 619 W/m² | - |
| 1777922656 | 26.67° C | 29% | 1012.9 hPa | 0 mm | - | 603 W/m² | - |
| 1777922356 | 26.11° C | 31% | 1012.7 hPa | 0 mm | - | 621 W/m² | - |
| 1777922056 | 26.11° C | 31% | 1012.7 hPa | 0 mm | - | 487 W/m² | - |
| 1777921756 | 26.11° C | 30% | 1012.6 hPa | 0 mm | - | 499 W/m² | - |
| 1777921456 | 26.11° C | 30% | 1012.6 hPa | 0 mm | - | 526 W/m² | - |
| 1777921156 | 26.11° C | 30% | 1012.6 hPa | 0 mm | - | 635 W/m² | - |
| 1777920856 | 25.56° C | 30% | 1012.8 hPa | 0 mm | - | 645 W/m² | - |
| 1777920556 | 26.11° C | 30% | 1013 hPa | 0 mm | - | 461 W/m² | - |
| 1777920256 | 25.56° C | 30% | 1013.1 hPa | 0 mm | - | 478 W/m² | - |
| 1777919956 | 25.56° C | 30% | 1013 hPa | 0 mm | - | 452 W/m² | - |
| 1777919657 | 25° C | 30% | 1013.1 hPa | 0 mm | - | 429 W/m² | - |
| 1777919356 | 25.56° C | 29% | 1012.9 hPa | 0 mm | - | 392 W/m² | - |
| 1777919056 | 25.56° C | 29% | 1013 hPa | 0 mm | - | 424 W/m² | - |
| 1777918756 | 25° C | 30% | 1013.1 hPa | 0 mm | - | 371 W/m² | - |
| 1777918456 | 25° C | 30% | 1012.9 hPa | 0 mm | - | 352 W/m² | - |
| 1777918157 | 25° C | 30% | 1012.9 hPa | 0 mm | - | 350 W/m² | - |
| 1777917856 | 25.56° C | 29% | 1012.8 hPa | 0 mm | - | 387 W/m² | - |
| 1777917556 | 25° C | 30% | 1013 hPa | 0 mm | - | 397 W/m² | - |
* Rain latest hour (hover to see other rain measurements)
** Current wind speed in m/s (hover to see current wind gust speed)